sat.trackr.live / text

‹ back to catalog

STARLINK-6197

NORAD 56767 · 2023-078A

PAYLOAD ACTIVE UNKNOWN

§ Identity

Operator
Country
US
Launch date
2023-05-31
Launch site
AFWTR
Launch vehicle
Mass (kg)
RCS (m²)

Purposes: comms

External: N2YO · Heavens-Above · Gunter

§ Orbital elements

Epoch: 2026-05-25T02:43:23.121120Z

Period
94.76 min
Inclination
69.9882°
Eccentricity
0.0003225
Mean motion
15.19638998 rev/d
Perigee alt
504.7 km
Apogee alt
509.2 km
Semi-major
6,885.1 km
B*
7.2409e-4
RAAN
150.8678°
Arg perigee
351.9888°
Mean anomaly
8.1230°
Rev number
16,415

§ Raw data

STARLINK-61971 56767U 23078A   26145.11346205  .00015391  00000+0  72409-3 0  99942 56767  69.9882 150.8678 0003225 351.9888   8.1230 15.19638998164154

JSON: /api/v1/satellites/56767 · /tle

For live sub-satellite position, see the globe view (requires WebGL).

§ Visibility from observer

Set your observer location to see the next 7 days of passes ≥ 10°. The values pass through the URL so the page stays shareable.

No JS? Fill the form by hand. The geolocation button needs JavaScript.